MPEC 1995-F07 : 1992 NA
The following Minor Planet Electronic Circular may be linked-to from your own Web pages, but must not otherwise be redistributed electronically.A form allowing access to any MPEC is at the bottom of this page.


M.P.E.C. 1995-F07 Issued 1995 Mar. 30, 16:48 UT The Minor Planet Electronic Circulars contain information on unusual minor planets and routine data on comets. They are published on behalf of Commission 20 of the International Astronomical Union by the Minor Planet Center, Smithsonian Astrophysical Observatory, Cambridge, MA 02138, U.S.A. BMARSDEN@CFA.HARVARD.EDU or GWILLIAMS@CFA.HARVARD.EDU 1992 NA Observations: J92N00A C1995 03 28.72784 13 30 34.47 -17 17 58.2 413 J92N00A C1995 03 28.73477 13 30 34.09 -17 17 57.2 413 J92N00A C1995 03 29.65303 13 29 42.49 -17 15 29.5 413 J92N00A C1995 03 29.65758 13 29 42.24 -17 15 28.2 413 Observer details: 413 Siding Spring Observatory. Observers S. F. Green, N. McBride, D. I. Steel, R. H. McNaught, G. J. Garradd, D. J. Asher. 3.9-m AAT + CCD. First and last observations above in comparison with prediction: Residuals in seconds of arc 950328 413 3.0- 0.9+ 950329 413 2.0- 1.0+ MPC 22971 Orbital elements: 1992 NA Id. R. H. McNaught (1995 observations) Epoch 1995 Mar. 24.0 TT = JDT 2449800.5 Williams M 245.63253 (2000.0) P Q n 0.26656721 Peri. 7.85051 +0.99866742 +0.04158379 a 2.3911027 Node 349.61790 -0.05152597 +0.83680300 e 0.5603911 Incl. 9.76472 +0.00291014 +0.54592263 P 3.70 H 16.5 G 0.15 U 1 Residuals in seconds of arc 920701 413 1.2+ 0.4- 920829 675 0.3- 0.6- 920926 675 0.3- 0.9- 920701 413 1.2- 1.1+ 920829 675 1.3- 1.5- 920926 675 0.5+ 0.3+ 920703 413 0.5+ 0.2- 920829 596 0.3- 1.4+ 920927 658 0.4- 0.0 920703 413 1.0- 0.6- 920829 596 0.8+ 2.0+ 920927 658 0.1+ 0.2- 920704 413 0.4- 0.4+ 920830 596 0.9- 0.2+ 921006 657 (2.8- 0.0 ) 920704 413 0.2- 0.3+ 920830 596 0.4- 0.8+ 921006 657 (2.7- 0.1-) 920704 413 0.3+ 1.0+ 920830 596 0.2+ 0.8+ 921006 657 (2.8- 0.1-) 920704 413 0.3+ 1.0+ 920830 596 1.4+ 1.2+ 921022 675 0.4+ 1.4- 920705 413 0.2- 0.0 920830 596 1.1+ 1.2+ 921022 675 1.0+ 1.4- 920705 413 0.3- 0.1+ 920830 596 (0.4+ 2.6+) 921024 675 0.1+ 0.6- 920705 413 0.3- 0.1+ 920830 596 (0.8+ 2.3+) 921024 675 1.0+ 1.3- 920711 413 0.2- 0.1- 920830 596 0.3+ 1.4+ 921027 801 0.1+ 1.0+ 920728 413 0.6+ 0.4- 920831 801 1.0- 0.4- 921027 657 0.3+ 0.7+ 920730 413 0.9+ 0.5- 920831 801 1.0- 0.5- 921027 657 0.1+ 0.7+ 920802 413 0.5+ 0.4- 920905 413 0.0 0.1- 921027 657 0.2+ 0.7+ 920809 413 0.0 0.0 920905 413 0.1+ 0.1- 921028 801 0.4+ 0.6+ 920809 413 0.0 0.0 920905 413 0.1+ 0.0 921028 801 0.4+ 0.7+ 920820 413 1.2- 1.2- 920906 413 0.2- 0.5- 921125 675 0.3+ 1.3- 920820 413 1.4- 1.1- 920906 413 0.1- 0.5- 921125 675 1.7+ 0.0 920821 413 0.6- 0.9- 920907 413 0.2- 0.3- 921130 675 0.5+ 1.2- 920821 413 0.6- 1.0- 920907 413 0.3- 0.2- 921202 658 1.3- 0.7+ 920821 323 1.0+ 0.9+ 920907 413 0.3- 0.7- 921202 658 1.6- 0.8+ 920821 413 0.1- 0.3- 920920 596 0.8- 0.3- 921202 658 1.5- 0.8+ 920821 413 0.2- 0.4- 920920 596 0.1- 0.6+ 921203 658 0.6- 0.5+ 920822 413 0.1+ 0.2- 920920 596 0.1+ 0.6+ 921203 658 0.5- 0.7+ 920822 413 0.1+ 0.2- 920920 596 0.3+ 0.8- 921203 658 0.6- 0.7+ 920822 413 0.7+ 0.2- 920920 596 0.1+ 0.1- 921227 801 0.6- 0.3+ 920822 413 0.7+ 0.1- 920920 104 (0.5- 2.5-) 921227 801 0.6- 0.2+ 920824 801 0.8- 0.6+ 920923 675 1.9- 1.4- 921228 801 0.0 1.1+ 920824 801 1.2- 0.8+ 920923 675 1.3- 1.5- 921228 801 0.2- 0.2- 920828 413 0.3+ 0.2+ 920925 801 0.5+ 0.1- 950328 413 0.8- 0.3- 920828 413 0.2+ 0.7- 920925 801 0.5+ 0.1- 950328 413 0.6- 0.4- 920828 413 1.4+ 0.5- 920925 104 1.1+ 0.9+ 950329 413 0.0 0.8- 920828 323 1.1+ 0.0 920926 104 1.3+ 1.3+ 950329 413 0.2+ 0.2- Ephemeris: 1992 NA a,e,i = 2.39, 0.56, 10 q = 1.0512 Date TT R. A. (2000) Decl. Delta r Elong. Phase V 1995 03 24 13 34.82 -17 28.9 2.440 3.363 153.7 7.5 21.6 1995 04 03 13 25.48 -17 02.3 2.356 3.332 164.8 4.5 21.4 1995 04 13 13 15.16 -16 23.6 2.303 3.299 172.1 2.4 21.2 1995 04 23 13 04.69 -15 36.0 2.281 3.265 165.9 4.3 21.2 1995 05 03 12 54.92 -14 44.3 2.289 3.230 154.9 7.6 21.4 1995 05 13 12 46.63 -13 53.7 2.324 3.193 143.5 10.8 21.5 1995 05 23 12 40.32 -13 09.4 2.382 3.155 132.4 13.7 21.7 1995 06 02 12 36.28 -12 34.9 2.459 3.115 121.9 16.0 21.8 1995 06 12 12 34.58 -12 12.6 2.548 3.074 111.9 17.8 21.9 1995 06 22 12 35.12 -12 03.3 2.645 3.032 102.5 19.1 22.0 Gareth V. Williams M.P.E.C. 1995-F07


Enter an MPEC number in one of the following forms:
- 1997-B01 (the full form)
- J97B01 (the packed version of the full form)
- B01 (the abbreviated form)